Time,TemperatureF,DewpointF,PressureIn,WindDirection,WindDirectionDegrees,WindSpeedMPH,WindSpeedGustMPH,Humidity,HourlyPrecipIn,Conditions,Clouds,dailyrainin,SoftwareType,DateUTC
2013-04-03 00:03:00,32.5,-99.9,30.16,North,0,5.0,9.0,0,0.00,,,-99.99,WeatherLink 5.7,2013-04-03 04:03:00,
2013-04-03 00:33:00,32.9,-99.9,30.16,North,0,5.0,7.0,0,0.00,,,-99.99,WeatherLink 5.7,2013-04-03 04:33:00,
2013-04-03 01:03:00,33.3,-99.9,30.16,North,0,5.0,10.0,0,0.00,,,-99.99,WeatherLink 5.7,2013-04-03 05:03:00,
2013-04-03 01:33:00,32.9,-99.9,30.17,North,0,6.0,11.0,0,0.00,,,-99.99,WeatherLink 5.7,2013-04-03 05:33:00,
2013-04-03 02:03:00,32.3,-99.9,30.17,North,0,5.0,9.0,0,0.00,,,-99.99,WeatherLink 5.7,2013-04-03 06:03:00,
2013-04-03 02:33:00,31.5,-99.9,30.17,North,0,4.0,7.0,0,0.00,,,-99.99,WeatherLink 5.7,2013-04-03 06:33:00,
2013-04-03 03:03:00,30.9,-99.9,30.17,North,0,3.0,6.0,0,0.00,,,-99.99,WeatherLink 5.7,2013-04-03 07:03:00,
2013-04-03 03:34:00,30.3,-99.9,30.17,North,0,3.0,4.0,0,0.00,,,-99.99,WeatherLink 5.7,2013-04-03 07:34:00,
2013-04-03 04:03:00,29.5,-99.9,30.18,North,0,3.0,4.0,0,0.00,,,-99.99,WeatherLink 5.7,2013-04-03 08:03:00,
2013-04-03 04:33:00,28.7,-99.9,30.19,North,0,2.0,4.0,0,0.00,,,-99.99,WeatherLink 5.7,2013-04-03 08:33:00,
2013-04-03 05:03:00,27.7,-99.9,30.19,North,0,3.0,5.0,0,0.00,,,-99.99,WeatherLink 5.7,2013-04-03 09:03:00,
2013-04-03 05:33:00,26.8,-99.9,30.19,North,0,4.0,6.0,0,0.00,,,-99.99,WeatherLink 5.7,2013-04-03 09:33:00,
2013-04-03 06:03:00,26.5,-99.9,30.20,North,0,3.0,5.0,0,0.00,,,-99.99,WeatherLink 5.7,2013-04-03 10:03:00,
2013-04-03 06:33:00,26.3,-99.9,30.21,North,0,2.0,4.0,0,0.00,,,-99.99,WeatherLink 5.7,2013-04-03 10:33:00,
2013-04-03 07:03:00,25.7,-99.9,30.21,North,0,3.0,5.0,0,0.00,,,-99.99,WeatherLink 5.7,2013-04-03 11:03:00,
2013-04-03 07:33:00,25.2,-99.9,30.20,NNE,22,4.0,6.0,0,0.00,,,-99.99,WeatherLink 5.7,2013-04-03 11:33:00,
2013-04-03 08:03:00,25.5,-99.9,30.22,North,0,4.0,6.0,0,0.00,,,-99.99,WeatherLink 5.7,2013-04-03 12:03:00,
2013-04-03 08:33:00,28.1,-99.9,30.25,North,0,4.0,6.0,0,0.00,,,-99.99,WeatherLink 5.7,2013-04-03 12:33:00,
2013-04-03 09:04:00,30.2,-99.9,30.27,North,0,5.0,8.0,0,0.00,,,-99.99,WeatherLink 5.7,2013-04-03 13:04:00,
2013-04-03 09:33:00,31.1,-99.9,30.30,North,0,4.0,8.0,0,0.00,,,-99.99,WeatherLink 5.7,2013-04-03 13:33:00,
2013-04-03 10:03:00,32.4,-99.9,30.30,NNE,22,4.0,11.0,0,0.00,,,-99.99,WeatherLink 5.7,2013-04-03 14:03:00,
2013-04-03 10:33:00,34.0,-99.9,30.30,North,0,7.0,13.0,-999,0.00,,,-99.99,WeatherLink 5.7,2013-04-03 14:33:00,
2013-04-03 11:03:00,35.6,-99.9,30.30,NE,45,6.0,15.0,-999,0.00,,,-99.99,WeatherLink 5.7,2013-04-03 15:03:00,
2013-04-03 11:33:00,36.7,-99.9,30.31,NNE,22,7.0,15.0,-999,0.00,,,-99.99,WeatherLink 5.7,2013-04-03 15:33:00,
2013-04-03 12:03:00,37.2,-99.9,30.31,NNE,22,6.0,13.0,-999,0.00,,,-99.99,WeatherLink 5.7,2013-04-03 16:03:00,
2013-04-03 12:34:00,38.3,-99.9,30.30,NNE,22,6.0,14.0,-999,0.00,,,-99.99,WeatherLink 5.7,2013-04-03 16:34:00,
2013-04-03 13:03:00,39.2,-99.9,30.30,North,0,7.0,15.0,-999,0.00,,,-99.99,WeatherLink 5.7,2013-04-03 17:03:00,
2013-04-03 13:34:00,39.9,-99.9,30.29,North,0,7.0,16.0,-999,0.00,,,-99.99,WeatherLink 5.7,2013-04-03 17:34:00,
2013-04-03 14:03:00,41.0,-99.9,30.28,North,0,7.0,14.0,-999,0.00,,,-99.99,WeatherLink 5.7,2013-04-03 18:03:00,
2013-04-03 14:33:00,41.9,-99.9,30.27,North,0,8.0,16.0,-999,0.00,,,-99.99,WeatherLink 5.7,2013-04-03 18:33:00,
2013-04-03 15:03:00,42.9,-99.9,30.26,NNE,22,8.0,19.0,-999,0.00,,,-99.99,WeatherLink 5.7,2013-04-03 19:03:00,
2013-04-03 15:34:00,43.6,-99.9,30.25,North,0,9.0,20.0,-999,0.00,,,-99.99,WeatherLink 5.7,2013-04-03 19:34:00,
2013-04-03 16:04:00,43.8,-99.9,30.26,North,0,7.0,16.0,-999,0.00,,,-99.99,WeatherLink 5.7,2013-04-03 20:04:00,
2013-04-03 16:34:00,44.1,-99.9,30.26,NNE,22,8.0,17.0,-999,0.00,,,-99.99,WeatherLink 5.7,2013-04-03 20:34:00,
2013-04-03 17:00:00,44.9,-99.9,30.27,NNE,22,5.0,12.0,-999,0.00,,,-99.99,WeatherLink 5.7,2013-04-03 21:00:00,
2013-04-03 17:33:00,45.3,-99.9,30.26,NE,45,5.0,12.0,-999,0.00,,,-99.99,WeatherLink 5.7,2013-04-03 21:33:00,
2013-04-03 18:03:00,45.2,-99.9,30.26,ENE,67,5.0,13.0,-999,0.00,,,-99.99,WeatherLink 5.7,2013-04-03 22:03:00,
2013-04-03 18:34:00,45.1,-99.9,30.26,NNE,22,5.0,10.0,-999,0.00,,,-99.99,WeatherLink 5.7,2013-04-03 22:34:00,
2013-04-03 19:03:00,44.7,-99.9,30.25,East,90,4.0,11.0,-999,0.00,,,-99.99,WeatherLink 5.7,2013-04-03 23:03:00,
2013-04-03 19:34:00,44.0,-99.9,30.24,East,90,5.0,12.0,-999,0.00,,,-99.99,WeatherLink 5.7,2013-04-03 23:34:00,
2013-04-03 20:03:00,43.3,-99.9,30.25,ENE,67,4.0,8.0,-999,0.00,,,-99.99,WeatherLink 5.7,2013-04-04 00:03:00,
2013-04-03 20:33:00,42.2,-99.9,30.24,East,90,3.0,6.0,-999,0.00,,,-99.99,WeatherLink 5.7,2013-04-04 00:33:00,
2013-04-03 21:03:00,41.0,-99.9,30.23,ENE,67,4.0,10.0,-999,0.00,,,-99.99,WeatherLink 5.7,2013-04-04 01:03:00,
2013-04-03 21:34:00,39.9,-99.9,30.22,ENE,67,4.0,9.0,-999,0.00,,,-99.99,WeatherLink 5.7,2013-04-04 01:34:00,
2013-04-03 22:03:00,39.2,-99.9,30.22,ENE,67,6.0,11.0,-999,0.00,,,-99.99,WeatherLink 5.7,2013-04-04 02:03:00,
2013-04-03 22:34:00,38.3,-99.9,30.22,ENE,67,6.0,11.0,-999,0.00,,,-99.99,WeatherLink 5.7,2013-04-04 02:34:00,
2013-04-03 23:04:00,37.4,-99.9,30.23,ENE,67,5.0,10.0,-999,0.00,,,-99.99,WeatherLink 5.7,2013-04-04 03:04:00,
2013-04-03 23:33:00,36.4,-99.9,30.24,East,90,4.0,8.0,-999,0.00,,,-99.99,WeatherLink 5.7,2013-04-04 03:33:00,